Location: Newark
(27.9675°N, 86.8869°E)
Time: 17:39:49
(UTC+00:00)

Vanguard 3 - All Passes

Search period start: 23 October 2019 00:00
Search period end: 02 November 2019 00:00
Orbit: 508 x 3262 km, 33.3° (Epoch: 23 October)

Date Brightness Start Highest point End Pass type
(mag) Time Alt. Az. Time Alt. Az. Time Alt. Az.
23 Oct - 13:20:56 10° SSW 13:26:18 18° SSE 13:30:16 10° ESE visible
23 Oct - 15:32:42 10° WSW 15:38:39 62° SSE 15:42:38 10° ENE visible
23 Oct - 17:46:20 10° W 17:50:10 40° N 17:53:41 10° ENE night (unlit)
23 Oct - 19:58:17 10° WNW 20:01:57 52° NNE 20:06:45 10° E visible
23 Oct - 22:09:07 10° W 22:13:38 47° SSW 22:20:57 10° SE visible
24 Oct - 00:22:27 10° WSW 00:26:40 16° SSW 00:32:12 10° S daylight
24 Oct - 12:08:24 10° S 12:11:31 12° SSE 12:14:11 10° SE visible
24 Oct - 14:17:40 10° SW 14:24:46 37° SSE 14:29:16 10° E visible
24 Oct - 16:31:27 10° W 16:36:31 62° NNW 16:40:14 10° ENE night (unlit)
24 Oct - 18:44:45 10° WNW 18:48:15 37° N 18:51:57 10° ENE night (unlit)
24 Oct - 20:55:52 10° WNW 20:59:49 79° SSW 21:05:42 10° ESE visible
24 Oct - 23:07:35 10° WSW 23:11:59 23° SSW 23:18:24 10° SSE visible
25 Oct - 13:02:49 10° SSW 13:10:25 25° SSE 13:15:26 10° E visible
25 Oct - 15:16:04 10° WSW 15:22:50 78° SSE 15:27:05 10° ENE visible
25 Oct - 17:30:26 10° WNW 17:34:30 39° N 17:37:57 10° ENE night (unlit)
25 Oct - 19:42:36 10° WNW 19:46:13 59° NNE 19:50:41 10° E night (unlit)
25 Oct - 21:53:44 10° W 21:57:47 35° SSW 22:03:55 10° SE visible
26 Oct - 11:48:37 10° S 11:55:32 18° SSE 12:00:38 10° ESE visible
26 Oct - 14:00:26 10° SW 14:08:53 49° SSE 14:13:52 10° E visible
26 Oct - 16:15:14 10° W 16:20:46 56° NNW 16:24:36 10° ENE night (unlit)
26 Oct - 18:28:56 10° WNW 18:32:35 39° N 18:36:10 10° ENE night (unlit)
26 Oct - 20:40:17 10° WNW 20:44:02 62° SSW 20:49:14 10° ESE visible
26 Oct - 22:52:53 10° WSW 22:56:08 16° SSW 23:00:21 10° S visible
27 Oct - 10:36:48 10° SSE 10:40:06 11° SSE 10:43:02 10° SE daylight
27 Oct - 12:44:54 10° SW 12:54:26 34° SSE 13:00:17 10° E visible
27 Oct - 14:59:23 10° WSW 15:06:59 88° NNW 15:11:31 10° ENE visible
27 Oct - 17:14:25 10° WNW 17:18:49 39° N 17:22:19 10° ENE night (unlit)
27 Oct - 19:26:52 10° WNW 19:30:31 71° NNE 19:34:40 10° ESE night (unlit)
27 Oct - 21:38:28 10° W 21:41:59 25° SSW 21:46:48 10° SSE visible
28 Oct - 11:29:50 10° SSW 11:39:28 24° SSE 11:45:58 10° ESE daylight
28 Oct - 13:43:13 10° SW 13:52:55 62° SSE 13:58:24 10° ENE visible
28 Oct - 15:58:55 10° W 16:04:59 52° NNW 16:09:01 10° ENE visible
28 Oct - 18:13:00 10° WNW 18:16:55 44° N 18:20:27 10° E night (unlit)
28 Oct - 20:24:43 10° W 20:28:16 45° SSW 20:32:48 10° SE night (unlit)
29 Oct - 10:15:57 10° S 10:23:55 16° SSE 10:30:06 10° ESE daylight
29 Oct - 12:27:04 10° SW 12:38:23 43° SSE 12:44:57 10° E visible
29 Oct - 14:42:38 10° WSW 14:51:05 78° NNW 14:55:57 10° ENE visible
29 Oct - 16:58:17 10° WNW 17:03:08 41° N 17:06:44 10° ENE night (unlit)
29 Oct - 19:11:03 10° WNW 19:14:48 88° NNE 19:18:44 10° ESE night (unlit)
29 Oct - 21:23:28 10° WSW 21:26:11 17° SSW 21:29:33 10° SSE visible
30 Oct - 11:11:20 10° SSW 11:23:16 31° SSE 11:30:52 10° E daylight
30 Oct - 13:25:58 10° WSW 13:36:52 74° SSE 13:42:51 10° ENE visible
30 Oct - 15:42:29 10° W 15:49:13 51° N 15:53:28 10° ENE visible
30 Oct - 17:56:58 10° WNW 18:01:14 51° N 18:04:49 10° E night (unlit)
30 Oct - 20:09:11 10° W 20:12:30 32° SSW 20:16:22 10° SE night (unlit)
31 Oct - 09:56:34 10° SSW 10:07:37 22° SSE 10:15:38 10° ESE daylight
31 Oct - 12:09:17 10° SW 12:22:12 53° SSE 12:29:28 10° E visible
31 Oct - 14:25:50 10° W 14:35:08 71° NNW 14:40:24 10° ENE visible
31 Oct - 16:42:01 10° WNW 16:47:26 44° N 16:51:13 10° ENE night (unlit)
31 Oct - 18:55:11 10° WNW 18:59:04 72° SSW 19:02:48 10° ESE night (unlit)
31 Oct - 21:09:13 10° SW 21:10:22 11° SSW 21:11:35 10° S night (unlit)
01 Nov - 08:44:00 10° S 08:51:27 14° SSE 08:57:47 10° ESE daylight
01 Nov - 10:53:02 10° SSW 11:06:57 39° SSE 11:15:31 10° E daylight
01 Nov - 13:08:41 10° WSW 13:20:46 84° SSE 13:27:16 10° ENE visible
01 Nov - 15:25:57 10° W 15:33:24 51° N 15:37:57 10° ENE visible
01 Nov - 17:40:49 10° WNW 17:45:33 62° NNE 17:49:12 10° E night (unlit)
01 Nov - 19:53:42 10° W 19:56:41 23° SSW 19:59:52 10° SSE night (unlit)
